Content
SEND FEEDBACK

Daily
Averages
Monthly
Summary
United States of America

BASSETT, KANSAS


Home > North America > United States > Kansas
Elevation: 293 meters     Latitude: 37 55N     Longitude: 095 24W

WEATHER
 
SELECT A DAY
Number of Records: 196,564;   Date Range: 1/1/95 - 7/7/14
 
SHARE

PRINT THIS DATA

[ ← Previous Day ]
WEATHER ALMANAC - 31 JANUARY, 2013
[ Next Day → ]
[ °F ]   °C
Weather ElementAverageHighLow
Temperature-4.6 °C-0.6 °C (11:52 am)-10 °C (10:52 pm)
Dewpoint-9.8 °C-6.1 °C (5:52 am)-15.6 °C (6:52 pm)
Humidity68.3 %85 % (2:52 am)48 % (4:52 pm)
Barometer1024 hPa1033.5 hPa (11:52 pm)1015.2 hPa (4:52 am)
Wind Speed16.4 km/h33.3 km/h (2:52 pm)
Wind Gust44.4 km/h (12:52 pm)
Weather ElementAverage
Visibility15.1 km
Wind DirectionWNW (282.1 °)

Weather ElementTotal
Precipitation---
Heating Degree Days23.7 (Base 18.3)
Averaged from 24 records on 31 January, 2013
WEATHER CONDITIONS BREAKOUT
WIND DIRECTION BREAKOUT
WEATHER BY HOUR - 31 JANUARY, 2013
[ °F ]   °C
Local TimeTemperatureDewpointHumidityBarometerVisibilityWind DirectionWind SpeedGust SpeedPrecipitationEventsConditions
1:52 AM-4.4 °C-7.2 °C81 %1016.6 hPa16.1 kmSSW (200°)11.1 km/hClear
2:52 AM-5 °C-7.2 °C85 %1016.3 hPa16.1 kmSSW (200°)11.1 km/hClear
3:52 AM-4.4 °C-7.2 °C81 %1016.3 hPa16.1 kmSSW (200°)13 km/hClear
4:52 AM-3.9 °C-6.7 °C81 %1015.2 hPa16.1 kmSouth (190°)14.8 km/hPartly Cloudy
5:52 AM-3.3 °C-6.1 °C81 %1016.3 hPa16.1 kmWSW (250°)11.1 km/hMostly Cloudy
6:52 AM-3.9 °C-6.7 °C81 %1016.6 hPa16.1 kmWSW (250°)5.6 km/hClear
7:52 AM-3.3 °C-6.1 °C81 %1017.6 hPa16.1 kmWNW (300°)5.6 km/hPartly Cloudy
8:52 AM-1.7 °C-6.1 °C72 %1019 hPa16.1 kmNorth (350°)22.2 km/hMostly Cloudy
9:52 AM-1.1 °C-6.1 °C69 %1020 hPa16.1 kmNorth (10°)20.4 km/hScattered Clouds
10:52 AM-1.1 °C-6.1 °C69 %1022.4 hPa16.1 kmNorth (350°)13 km/hOvercast
11:52 AM-0.6 °C-6.7 °C64 %1023.7 hPa16.1 kmNNW (340°)24.1 km/h35.2 km/hMostly Cloudy
12:52 PM-1.7 °C-7.8 °C64 %1025.1 hPa16.1 kmNorth (350°)24.1 km/h44.4 km/hOvercast
1:22 PM-3 °C-7 °C74 %1024 hPa4 kmNNW (330°)20.4 km/h40.7 km/h0 mmSnowLight Snow
1:29 PM-3 °C-7 °C74 %1024 hPa6.4 kmNNW (340°)18.5 km/h31.5 km/h0 mmSnowLight Snow
2:52 PM-2.8 °C-11.1 °C53 %1026.1 hPa16.1 kmNNW (340°)33.3 km/h44.4 km/hScattered Clouds
3:52 PM-3.9 °C-12.2 °C53 %1026.4 hPa16.1 kmNorth (350°)25.9 km/h37 km/hClear
4:52 PM-4.4 °C-13.9 °C48 %1027.8 hPa16.1 kmNorth (360°)24.1 km/h42.6 km/hClear
5:52 PM-6.1 °C-15 °C50 %1028.8 hPa16.1 kmNorth (360°)25.9 km/hClear
6:52 PM-7.2 °C-15.6 °C52 %1030.5 hPa16.1 kmNorth (350°)18.5 km/hClear
7:52 PM-8.3 °C-15 °C59 %1031.5 hPa16.1 kmNorth (360°)20.4 km/hClear
8:52 PM-8.9 °C-15 °C62 %1032.8 hPa16.1 kmNorth (360°)16.7 km/hClear
9:52 PM-9.4 °C-15 °C64 %1033.2 hPa16.1 kmNW (320°)9.3 km/hClear
10:52 PM-10 °C-14.4 °C71 %1033.2 hPa16.1 kmNW (310°)5.6 km/hClear
11:52 PM-10 °C-14.4 °C71 %1033.5 hPa16.1 kmCalmClear
Hourly data recorded from KCNU, located 0 kilometers away from Bassett, Kansas







STORIES FROM OUR PARTNERS